sat.trackr.live / text

‹ back to catalog

QIANFAN-210

NORAD 69809 · 2026-153K

PAYLOAD ACTIVE UNKNOWN

§ Identity

Operator
Country
PRC
Launch date
2026-07-04
Launch site
TAISC
Launch vehicle
Mass (kg)
RCS (m²)

External: N2YO · Heavens-Above · Gunter

§ Orbital elements

Epoch: 2026-09-19T20:44:48.924096Z

Period
102.92 min
Inclination
88.9973°
Eccentricity
0.0004686
Mean motion
13.99150769 rev/d
Perigee alt
893.3 km
Apogee alt
900.1 km
Semi-major
7,274.9 km
B*
-1.3186e+0
RAAN
351.5303°
Arg perigee
35.4753°
Mean anomaly
324.6736°
Rev number
1,096

§ Raw data

QIANFAN-2101 69809U 26153K   26262.86445514 -.01770622  00000+0 -13186+1 0  99992 69809  88.9973 351.5303 0004686  35.4753 324.6736 13.99150769 10966

JSON: /api/v1/satellites/69809 · /tle

For live sub-satellite position, see the globe view (requires WebGL).

§ Visibility from observer

Set your observer location to see the next 7 days of passes ≥ 10°. The values pass through the URL so the page stays shareable.

No JS? Fill the form by hand. The geolocation button needs JavaScript.